Simultaneous Nadir Overpasses (SNOs) Predictions

Prediction of SNOs between NOAA-19 and METOP-C Satellite Orbit:

Table of predicted SNOs for the next 14.0 days since TLE Epoch: 1/18/2025
Index Date (NOAA-19) Time (NOAA-19) Lat,Lon (NOAA-19) SZA (NOAA-19 ) Date (METOP-C) Time (METOP-C) Lat,Lon (METOP-C) SZA (METOP-C ) Distance(km) Time Diff (sec)
1 01/28/2025 06:12:50 76.74,-170.94 109.70 01/28/2025 06:13:56 76.73,-170.88 109.78 2.16 66
2 01/28/2025 07:03:40 -76.20, -1.55 69.77 01/28/2025 07:04:24 -76.21, -1.62 69.75 2.08 44
3 01/28/2025 07:54:34 76.18, 165.79 110.24 01/28/2025 07:55:05 76.16, 165.87 110.29 3.00 31
4 01/28/2025 08:45:22 -75.53, -24.70 69.15 01/28/2025 08:45:31 -75.53, -24.73 69.15 0.99 9
5 01/28/2025 09:36:10 75.23, 143.53 111.12 01/28/2025 09:36:07 75.25, 143.47 111.10 2.64 3
6 01/28/2025 10:27:02 -74.74, -47.78 68.45 01/28/2025 10:26:36 -74.74, -47.77 68.47 0.23 26
7 01/28/2025 11:17:47 74.29, 120.77 111.96 01/28/2025 11:17:09 74.30, 120.73 111.91 1.63 38
8 01/28/2025 12:08:39 -73.79, -70.71 67.62 01/28/2025 12:07:38 -73.79, -70.67 67.68 1.60 61



Historial Predications of SNOs between NOAA-19 and METOP-C
